Regional Weather Roundup
Issued by NWS

Home | Current Version | Previous Version | Text Only | Print | Product List | Glossary On
Versions: 1 2 3 4 5 6 7 8 9 10 11 12 13 14 15 16 17 18 19 20 21 22 23 24 25 26 27 28 29 30 31 32 33 34 35 36 37 38 39 40 41 42 43 44 45 46 47 48 49 50
000
ASUS43 KLOT 300712
RWRIL

ILLINOIS REGIONAL WEATHER ROUNDUP
NATIONAL WEATHER SERVICE CHICAGO/ROMEOVILLE IL
200 AM CDT THU JUL 30 2015

NOTE: "FAIR" INDICATES FEW OR NO CLOUDS BELOW 12,000 FEET WITH NO
SIGNIFICANT WEATHER AND/OR OBSTRUCTIONS TO VISIBILITY.

* THESE STATIONS ARE NOT UNDER NWS QUALITY CONTROL. THEY ALSO MAY NOT
  REPORT WEATHER SUCH AS PRECIPITATION OR FOG.

ILZ001-002-007-009-015-016-024-300800-
NORTHWEST ILLINOIS

CITY           SKY/WX    TMP DP  RH WIND       PRES   REMARKS
MOLINE         CLEAR     64  59  83 SW5       30.08F
STERLING*      CLEAR     64  59  82 W6        30.06S
SAVANNA*       CLEAR     67  58  72 N3        30.06S
$$

ILZ003-004-008-010-011-017-018-300800-
NORTH CENTRAL ILLINOIS

CITY           SKY/WX    TMP DP  RH WIND       PRES   REMARKS
ROCKFORD       CLEAR     66  58  75 W5        30.05F
FREEPORT*      CLEAR     64  58  81 SW8       30.06F
ROCHELLE*      CLEAR     60  58  92 CALM      30.06S
DE KALB*       CLEAR     67  59  74 W10       30.05S
PERU*          CLEAR     65  59  82 W8        30.07S
$$

ILZ005-006-012>014-019>023-300800-
NORTHEAST ILLINOIS

CITY           SKY/WX    TMP DP  RH WIND       PRES   REMARKS
CHICAGO-OHARE  CLEAR     69  57  65 W7        30.01F
CHICAGO-MIDWAY CLEAR     73  56  54 W8        30.01F
AURORA         CLEAR     63  57  81 CALM      30.04F
LANSING*       CLEAR     66  55  67 W3        30.02F
JOLIET*        CLEAR     67  60  79 W5        30.04S
WAUKEGAN       CLEAR     68  55  63 W5        29.99F
DUPAGE AIRPORT CLEAR     66  57  72 W7        30.02F
KANKAKEE*      CLEAR     65  62  90 W6        30.05S
WHEELING       CLEAR     71  54  54 W6        30.02F
MORRIS*        CLEAR     63  60  88 W8        30.04S
ROMEOVILLE*    CLEAR     63  59  85 W7        30.04S
NORTHERLY ISL    N/A     73  55  53 W6          N/A
$$

LMZ740>746-300800-
SOUTHERN LAKE MICHIGAN

STATION/POSITION SKY/WX   TEMP    WIND        PRES    VSBY  WAVE
                          AIR SEA DIR/SP/G                  HT/PER
                          (F)     (DEG/KT/KT) (MB)    (MI)  (FT/S)
HARRISON CRIB              75     280/ 14/ 16   N/A
BURNHAM HARBOR             73     250/  6/  9   N/A
BURNS HARBOR               74     260/ 11/ 14 1016.9S
MICHIGAN CITY              74     230/ 17/ 18   N/A
MICHIGAN CITY 6N           75 73  290/ 12/ 16   N/A           3/ 4
ST. JOSEPH                 74 74  320/ 14/ 17   N/A           3/ 4
$$

ILZ025>027-034>036-040-047-049-050-058-095>099-300800-
WEST-CENTRAL ILLINOIS

CITY           SKY/WX    TMP DP  RH WIND       PRES   REMARKS
QUINCY         CLEAR     68  61  78 W5        30.13F
GALESBURG*     CLEAR     66  60  80 SW5       30.11S
MACOMB*        CLEAR     65  62  90 W6        30.14S
JACKSONVILLE*  CLEAR     66  63  89 W6        30.12S
PITTSFIELD*    CLEAR     67  62  82 W3        30.14S
$$

ILZ028>032-037-038-041>044-048-051>054-059>061-300800-
CENTRAL ILLINOIS

CITY           SKY/WX    TMP DP  RH WIND       PRES   REMARKS
PONTIAC        CLEAR     65  62  91 CALM      30.08S
BLOOMINGTON    CLEAR     69  62  78 W10       30.10S
DECATUR        CLEAR     72  59  63 NW12      30.09F
PEORIA         CLEAR     69  60  73 W3        30.09F
LACON*         CLEAR     67  60  78 CALM      30.07S
LINCOLN*       CLEAR     69  61  76 NW3       30.10S
SPRINGFIELD    CLEAR     65  61  87 W5        30.11S
TAYLORVILLE    CLEAR     63  61  94 W5        30.11R
$$

ILZ033-039-045-046-055>057-062-063-300800-
EAST-CENTRAL ILLINOIS

CITY           SKY/WX    TMP DP  RH WIND       PRES   REMARKS
CHAMPAIGN      CLEAR     64  60  87 MISG      30.08S
DANVILLE*      CLEAR     66  60  82 W7        30.04S
RANTOUL*       CLEAR     64  62  92 W5        30.08S
MATTOON        CLEAR     64  58  80 NW7       30.08S
PARIS*         CLEAR     63  60  91 W5        30.07F
$$

ILZ079-100>102-300800-
SOUTHWEST ILLINOIS

CITY           SKY/WX    TMP DP  RH WIND       PRES   REMARKS
ALTON          CLEAR     68  59  74 NW5       30.12S
BELLEVILLE     CLEAR     69  62  78 NW2       30.10S
CAHOKIA*       CLEAR     66  62  87 CALM      30.11S
SPARTA*        CLEAR     70  63  77 N5        30.11S
$$

ILZ064>066-069>071-074>076-080>082-084>086-088>090-092>094-300800-
SOUTH-CENTRAL ILLINOIS

CITY           SKY/WX    TMP DP  RH WIND       PRES   REMARKS
CARBONDALE     CLEAR     70  66  87 N5        30.09S
CAIRO*         PTCLDY    75  68  79 N8        30.07R
EFFINGHAM*     CLEAR     65  58  77 W3        30.11S
MARION         CLEAR     73  64  73 N6        30.10R
MT. VERNON     CLEAR     64  57  77 CALM      30.10S
CENTRALIA*     CLEAR     67  58  73 NW5       30.10S
SALEM*         CLEAR     69  60  75 NW3       30.10S
METROPOLIS*    PTCLDY    75  70  85 N6        30.07S
$$

ILZ067-068-072-073-078-083-087-091-300800-
SOUTHEAST ILLINOIS

CITY           SKY/WX    TMP DP  RH WIND       PRES   REMARKS
LAWRENCEVILLE  CLEAR     67  64  90 NW6       30.07S
FLORA*         CLEAR     66  60  79 NW3       30.09S
FAIRFIELD*     PTCLDY    69  61  74 N3        30.07S
HARRISBURG*    PTCLDY    72  64  74 N3        30.09R
ROBINSON*      CLEAR     64  62  93 CALM      30.08S
CARMI*         PTCLDY    69  64  83 CALM      30.07R
$$

ABBREVIATIONS USED IN REMARKS
   TC - TEMPERATURE IN CELSIUS
  WCI - WIND CHILL INDEX
   HX - HEAT INDEX
  VSB - VISIBILITY
$$




USA.gov is the U.S. government's official web portal to all federal, state and local government web resources and services.